User: anonymous   Login
Location: Zlin
(49.2330°N, 17.6670°E)
Time: 05:30:10
(UTC+02:00)
Language:

ISS - Orbit

View from above orbital plane
View from above orbital plane
View from above satellite
View from above satellite

Ground track
Ground track

The orbit data is extracted from the following two-line orbital elements,

1 25544U 98067A   16211.83065471  .00000771  00000-0  18426-4 0  9995
2 25544  51.6431 205.2593 0002166  86.8479 336.5804 15.54892053 11626
Epoch (UTC): 29 July 2016 19:56:08
Eccentricity: 0.0002166
inclination: 51.6431°
perigee height: 401 km
apogee height: 404 km
right ascension of ascending node: 205.2593°
argument of perigee: 86.8479°
revolutions per day: 15.54892053
mean anomaly at epoch: 336.5804°
orbit number at epoch: 1162

The dashed part of the orbit path shows where the satellite is in the earth's shadow,  

DLR